• In Spain
  • List of Countries
  • For 7 days
  • Water Temperature
  • Satellite Maps
  • Weather Map
  • Weather Widgets
  • user-avatar
    Login

    Hourly Weather Zandzhan

    Today, 19 September, Wednesday

    Time Temperature Precipitation Wind Pressure Humidity
    00:00 +18°C° 0.1 mm 2 mps 618 mmHg 68%
    01:00 +17°C° 0.2 mm 2 mps 618 mmHg 71%
    02:00 +16°C° 0.2 mm 2 mps 618 mmHg 73%
    03:00 +17°C° 0 mm 2 mps 618 mmHg 68%
    04:00 +16°C° 0.1 mm 2 mps 618 mmHg 71%
    05:00 +16°C° 0.1 mm 2 mps 618 mmHg 74%
    06:00 +16°C° 0.1 mm 2 mps 618 mmHg 77%
    07:00 +17°C° 0 mm 2 mps 619 mmHg 69%
    08:00 +19°C° 0 mm 2 mps 619 mmHg 62%
    09:00 +20°C° 0 mm 2 mps 620 mmHg 54%
    10:00 +23°C° 0 mm 2 mps 620 mmHg 47%
    11:00 +25°C° 0 mm 2 mps 620 mmHg 39%
    12:00 +26°C° 0 mm 2 mps 621 mmHg 32%
    13:00 +26°C° 0.4 mm 2 mps 620 mmHg 32%
    14:00 +26°C° 0.4 mm 3 mps 620 mmHg 32%
    15:00 +26°C° 0.4 mm 3 mps 620 mmHg 32%
    16:00 +25°C° 0.1 mm 3 mps 620 mmHg 36%
    17:00 +24°C° 0.1 mm 3 mps 619 mmHg 41%
    18:00 +22°C° 0.1 mm 3 mps 619 mmHg 46%
    19:00 +21°C° 0.1 mm 3 mps 619 mmHg 53%
    20:00 +20°C° 0.1 mm 3 mps 619 mmHg 60%
    21:00 +18°C° 0.1 mm 3 mps 619 mmHg 68%
    22:00 +17°C° 0 mm 3 mps 618 mmHg 70%
    23:00 +17°C° 0 mm 3 mps 618 mmHg 73%

    Tomorrow, 20 September, Thursday

    Time Temperature Precipitation Wind Pressure Humidity
    00:00 +16°C° 0 mm 3 mps 618 mmHg 76%
    01:00 +16°C° 0 mm 3 mps 618 mmHg 77%
    02:00 +15°C° 0 mm 2 mps 618 mmHg 78%
    03:00 +15°C° 0 mm 2 mps 618 mmHg 79%
    04:00 +15°C° 0 mm 2 mps 618 mmHg 80%
    05:00 +15°C° 0 mm 2 mps 619 mmHg 81%
    06:00 +14°C° 0 mm 2 mps 619 mmHg 82%
    07:00 +16°C° 0 mm 2 mps 619 mmHg 75%
    08:00 +17°C° 0 mm 3 mps 620 mmHg 67%
    09:00 +18°C° 0 mm 3 mps 620 mmHg 60%
    10:00 +19°C° 0 mm 3 mps 620 mmHg 55%
    11:00 +21°C° 0 mm 3 mps 621 mmHg 50%
    12:00 +22°C° 0 mm 3 mps 621 mmHg 44%
    13:00 +23°C° 0 mm 4 mps 621 mmHg 43%
    14:00 +23°C° 0 mm 4 mps 620 mmHg 42%
    15:00 +23°C° 0 mm 4 mps 620 mmHg 40%
    16:00 +22°C° 0 mm 4 mps 620 mmHg 47%
    17:00 +20°C° 0 mm 4 mps 619 mmHg 53%
    18:00 +19°C° 0 mm 4 mps 619 mmHg 60%
    19:00 +18°C° 0.1 mm 4 mps 619 mmHg 63%
    20:00 +17°C° 0.1 mm 4 mps 619 mmHg 66%
    21:00 +16°C° 0.1 mm 3 mps 619 mmHg 70%
    22:00 +16°C° 0 mm 3 mps 619 mmHg 71%
    23:00 +16°C° 0 mm 2 mps 619 mmHg 73%

    Day after tomorrow, 21 September, Friday

    Time Temperature Precipitation Wind Pressure Humidity
    00:00 +15°C° 0 mm 2 mps 619 mmHg 74%
    01:00 +15°C° 0.1 mm 2 mps 619 mmHg 76%
    02:00 +15°C° 0.1 mm 2 mps 619 mmHg 77%
    03:00 +14°C° 0.1 mm 1 mps 619 mmHg 79%
    04:00 +14°C° 0 mm 1 mps 619 mmHg 80%
    05:00 +14°C° 0 mm 1 mps 619 mmHg 81%
    06:00 +14°C° 0 mm 1 mps 619 mmHg 82%
    07:00 +15°C° 0 mm 1 mps 619 mmHg 74%
    08:00 +18°C° 0 mm 1 mps 620 mmHg 66%
    09:00 +19°C° 0 mm 1 mps 620 mmHg 58%
    10:00 +21°C° 0 mm 1 mps 621 mmHg 51%
    11:00 +22°C° 0 mm 1 mps 621 mmHg 45%
    12:00 +24°C° 0 mm 1 mps 621 mmHg 39%
    13:00 +25°C° 0 mm 2 mps 621 mmHg 35%
    14:00 +25°C° 0 mm 2 mps 621 mmHg 31%
    15:00 +26°C° 0 mm 2 mps 621 mmHg 27%
    16:00 +25°C° 0.1 mm 2 mps 620 mmHg 31%
    17:00 +24°C° 0.1 mm 2 mps 620 mmHg 35%
    18:00 +23°C° 0.1 mm 2 mps 620 mmHg 38%
    19:00 +21°C° 0.1 mm 2 mps 620 mmHg 45%
    20:00 +20°C° 0.1 mm 2 mps 620 mmHg 51%
    21:00 +19°C° 0.1 mm 2 mps 620 mmHg 57%
    22:00 +19°C° 0 mm 2 mps 620 mmHg 62%
    23:00 +18°C° 0 mm 2 mps 620 mmHg 66%

    22 September, Saturday

    Time Temperature Precipitation Wind Pressure Humidity
    00:00 +17°C° 0 mm 2 mps 620 mmHg 71%
    01:00 +17°C° 0 mm 2 mps 619 mmHg 73%
    02:00 +16°C° 0 mm 1 mps 619 mmHg 76%
    03:00 +16°C° 0 mm 1 mps 619 mmHg 78%
    04:00 +16°C° 0 mm 1 mps 619 mmHg 79%
    05:00 +15°C° 0 mm 1 mps 619 mmHg 79%
    06:00 +15°C° 0 mm 1 mps 619 mmHg 80%
    07:00 +18°C° 0 mm 1 mps 620 mmHg 71%
    08:00 +20°C° 0 mm 1 mps 621 mmHg 61%
    09:00 +21°C° 0 mm 1 mps 622 mmHg 52%
    10:00 +23°C° 0 mm 1 mps 622 mmHg 44%
    11:00 +24°C° 0 mm 1 mps 622 mmHg 37%
    12:00 +26°C° 0 mm 1 mps 622 mmHg 30%
    13:00 +26°C° 0 mm 1 mps 622 mmHg 28%
    14:00 +27°C° 0 mm 1 mps 621 mmHg 26%
    15:00 +28°C° 0 mm 2 mps 621 mmHg 25%
    16:00 +27°C° 0.2 mm 2 mps 621 mmHg 29%
    17:00 +26°C° 0.2 mm 2 mps 621 mmHg 33%
    18:00 +25°C° 0.2 mm 2 mps 620 mmHg 37%
    19:00 +24°C° 0 mm 2 mps 620 mmHg 43%
    20:00 +23°C° 0 mm 2 mps 620 mmHg 49%
    21:00 +20°C° 0 mm 2 mps 620 mmHg 54%
    22:00 +20°C° 0 mm 2 mps 620 mmHg 58%
    23:00 +19°C° 0 mm 2 mps 620 mmHg 62%

    23 September, Sunday

    Time Temperature Precipitation Wind Pressure Humidity
    00:00 +19°C° 0 mm 2 mps 619 mmHg 66%
    01:00 +18°C° 0 mm 2 mps 619 mmHg 67%
    02:00 +18°C° 0 mm 2 mps 619 mmHg 69%
    03:00 +18°C° 0 mm 1 mps 619 mmHg 70%
    04:00 +18°C° 0 mm 1 mps 619 mmHg 70%
    05:00 +18°C° 0 mm 1 mps 619 mmHg 71%
    06:00 +16°C° 0 mm 1 mps 619 mmHg 71%
    07:00 +18°C° 0 mm 2 mps 619 mmHg 61%
    08:00 +20°C° 0 mm 2 mps 620 mmHg 51%
    09:00 +22°C° 0 mm 3 mps 621 mmHg 41%
    10:00 +25°C° 0.1 mm 3 mps 621 mmHg 35%
    11:00 +27°C° 0.1 mm 4 mps 621 mmHg 29%
    12:00 +29°C° 0.1 mm 4 mps 621 mmHg 23%
    13:00 +29°C° 0.1 mm 4 mps 621 mmHg 20%
    14:00 +30°C° 0.1 mm 5 mps 620 mmHg 18%
    15:00 +30°C° 0.1 mm 5 mps 620 mmHg 16%
    16:00 +29°C° 0 mm 5 mps 620 mmHg 19%
    17:00 +27°C° 0 mm 5 mps 619 mmHg 22%
    18:00 +26°C° 0 mm 4 mps 619 mmHg 26%
    19:00 +25°C° 0 mm 4 mps 619 mmHg 28%
    20:00 +22°C° 0 mm 3 mps 619 mmHg 31%
    21:00 +21°C° 0 mm 2 mps 619 mmHg 34%
    22:00 +21°C° 0 mm 2 mps 618 mmHg 33%
    23:00 +20°C° 0 mm 2 mps 618 mmHg 32%

    24 September, Monday

    Time Temperature Precipitation Wind Pressure Humidity
    00:00 +19°C° 0 mm 2 mps 618 mmHg 31%
    01:00 +19°C° 0 mm 2 mps 617 mmHg 31%
    02:00 +18°C° 0 mm 2 mps 617 mmHg 31%
    03:00 +18°C° 0 mm 2 mps 617 mmHg 31%
    04:00 +18°C° 0 mm 2 mps 617 mmHg 32%
    05:00 +17°C° 0 mm 2 mps 617 mmHg 33%
    06:00 +18°C° 0 mm 1 mps 617 mmHg 34%
    07:00 +19°C° 0 mm 2 mps 618 mmHg 29%
    08:00 +22°C° 0 mm 3 mps 618 mmHg 25%
    09:00 +25°C° 0 mm 4 mps 619 mmHg 21%
    10:00 +26°C° 0 mm 4 mps 619 mmHg 18%
    11:00 +27°C° 0 mm 4 mps 619 mmHg 15%
    12:00 +28°C° 0 mm 4 mps 619 mmHg 12%
    13:00 +28°C° 0 mm 5 mps 619 mmHg 12%
    14:00 +28°C° 0 mm 5 mps 619 mmHg 11%
    15:00 +29°C° 0 mm 5 mps 619 mmHg 11%
    16:00 +27°C° 0 mm 4 mps 618 mmHg 16%
    17:00 +26°C° 0 mm 4 mps 618 mmHg 21%
    18:00 +24°C° 0 mm 3 mps 618 mmHg 27%
    19:00 +22°C° 0 mm 3 mps 617 mmHg 34%
    20:00 +20°C° 0 mm 2 mps 617 mmHg 40%
    21:00 +19°C° 0 mm 2 mps 617 mmHg 47%
    22:00 +18°C° 0 mm 2 mps 617 mmHg 50%
    23:00 +19°C° 0 mm 1 mps 617 mmHg 54%
    Show more